| time (UTC) | temp F | wind direction | speed knots | gust knots | rain 1hr in | rain 24hr in | rain mn in | humidity % | barometer mb |
| 20260505034541 | 66 | 232 | 6.1 | 11.3 | 0.00 | 0.00 | 0.00 | 45 | 1016.1 |
| 20260505033042 | 66 | 227 | 4.3 | 7.8 | 0.00 | 0.00 | 0.00 | 46 | 1016.2 |
| 20260505031541 | 66 | 226 | 1.7 | 4.3 | 0.00 | 0.00 | 0.00 | 46 | 1016.2 |
| 20260505030041 | 66 | 258 | 1.7 | 5.2 | 0.00 | 0.00 | 0.00 | 46 | 1016.4 |
| 20260505024551 | 67 | 212 | 1.7 | 5.2 | 0.00 | 0.00 | 0.00 | 46 | 1016.4 |
| 20260505023044 | 67 | 227 | 4.3 | 7.8 | 0.00 | 0.00 | 0.00 | 45 | 1016.4 |
| 20260505021544 | 68 | 212 | 2.6 | 5.2 | 0.00 | 0.00 | 0.00 | 44 | 1016.1 |
| 20260505020041 | 68 | 219 | 0.9 | 6.1 | 0.00 | 0.00 | 0.00 | 42 | 1016.2 |
| 20260505014618 | 69 | 165 | 3.5 | 7.8 | 0.00 | 0.00 | 0.00 | 41 | 1015.9 |
| 20260505013046 | 69 | 163 | 2.6 | 7.0 | 0.00 | 0.00 | 0.00 | 41 | 1016.0 |
| 20260505011544 | 69 | 182 | 3.5 | 8.7 | 0.00 | 0.00 | 0.00 | 40 | 1015.9 |
| 20260505010053 | 69 | 207 | 1.7 | 7.0 | 0.00 | 0.00 | 0.00 | 39 | 1015.7 |
| 20260505004541 | 70 | 203 | 2.6 | 7.0 | 0.00 | 0.00 | 0.00 | 38 | 1015.5 |
| 20260505003041 | 70 | 130 | 1.7 | 5.2 | 0.00 | 0.00 | 0.00 | 38 | 1015.3 |
| 20260505001544 | 71 | 156 | 1.7 | 5.2 | 0.00 | 0.00 | 0.00 | 37 | 1015.2 |
| 20260505000046 | 71 | 190 | 1.7 | 7.0 | 0.00 | 0.00 | 0.00 | 36 | 1015.3 |
| 20260504234545 | 72 | 186 | 1.7 | 6.1 | 0.00 | 0.00 | 0.00 | 37 | 1015.1 |
| 20260504233100 | 73 | 196 | 3.5 | 10.4 | 0.00 | 0.00 | 0.00 | 36 | 1015.1 |
| 20260504231546 | 73 | 188 | 5.2 | 12.2 | 0.00 | 0.00 | 0.00 | 35 | 1014.9 |
| 20260504230052 | 74 | 169 | 5.2 | 10.4 | 0.00 | 0.00 | 0.00 | 36 | 1014.9 |
| 20260504224541 | 74 | 182 | 2.6 | 7.8 | 0.00 | 0.00 | 0.00 | 37 | 1014.9 |
| 20260504223040 | 74 | 159 | 4.3 | 13.0 | 0.00 | 0.00 | 0.00 | 37 | 1014.9 |
| 20260504221544 | 74 | 179 | 6.1 | 12.2 | 0.00 | 0.00 | 0.00 | 37 | 1014.9 |
| 20260504220044 | 74 | 190 | 5.2 | 10.4 | 0.00 | 0.00 | 0.00 | 36 | 1014.8 |
| 20260504214554 | 75 | 165 | 5.2 | 11.3 | 0.00 | 0.00 | 0.00 | 36 | 1014.8 |
| 20260504213041 | 75 | 152 | 6.1 | 12.2 | 0.00 | 0.00 | 0.00 | 35 | 1014.8 |
| 20260504211541 | 75 | 182 | 4.3 | 11.3 | 0.00 | 0.00 | 0.00 | 36 | 1014.9 |
| 20260504210104 | 76 | 100 | 4.3 | 11.3 | 0.00 | 0.00 | 0.00 | 34 | 1014.7 |
| 20260504204548 | 76 | 175 | 2.6 | 8.7 | 0.00 | 0.00 | 0.00 | 36 | 1015.0 |
| 20260504203100 | 76 | 175 | 4.3 | 13.9 | 0.00 | 0.00 | 0.00 | 35 | 1015.0 |
| 20260504201542 | 76 | 232 | 3.5 | 9.6 | 0.00 | 0.00 | 0.00 | 35 | 1015.4 |
| 20260504200042 | 76 | 142 | 7.0 | 11.3 | 0.00 | 0.00 | 0.00 | 34 | 1015.4 |
| 20260504194541 | 78 | 76 | 0.9 | 8.7 | 0.00 | 0.00 | 0.00 | 34 | 1015.6 |
| 20260504193041 | 77 | 159 | 2.6 | 7.0 | 0.00 | 0.00 | 0.00 | 35 | 1015.6 |
| 20260504191545 | 77 | 131 | 5.2 | 10.4 | 0.00 | 0.00 | 0.00 | 35 | 1015.9 |
| 20260504190106 | 77 | 212 | 2.6 | 8.7 | 0.00 | 0.00 | 0.00 | 35 | 1016.0 |
| 20260504184543 | 76 | 213 | 3.5 | 7.8 | 0.00 | 0.00 | 0.00 | 35 | 1016.3 |
| 20260504183041 | 75 | 277 | 5.2 | 9.6 | 0.00 | 0.00 | 0.00 | 36 | 1016.5 |
| 20260504181543 | 75 | 241 | 4.3 | 7.8 | 0.00 | 0.00 | 0.00 | 35 | 1016.8 |
| 20260504180041 | 75 | 134 | 3.5 | 8.7 | 0.00 | 0.00 | 0.00 | 35 | 1017.0 |
| 20260504174545 | 74 | 235 | 2.6 | 8.7 | 0.00 | 0.00 | 0.00 | 35 | 1017.1 |
| 20260504173043 | 73 | 252 | 3.5 | 8.7 | 0.00 | 0.00 | 0.00 | 37 | 1017.0 |
| 20260504171546 | 74 | 267 | 5.2 | 10.4 | 0.00 | 0.00 | 0.00 | 36 | 1017.2 |
| 20260504081548 | 43 | 243 | 1.7 | 2.6 | 0.00 | 0.00 | 0.00 | 83 | 1018.0 |
| 20260504044541 | 52 | 219 | 0.0 | 2.6 | 0.00 | 0.00 | 0.00 | 66 | 1018.4 |
| 20260504043052 | 53 | 221 | 0.9 | 2.6 | 0.00 | 0.00 | 0.00 | 65 | 1018.4 |
| 20260504041541 | 53 | 223 | 0.9 | 1.7 | 0.00 | 0.00 | 0.00 | 63 | 1018.0 |
| 20260504040046 | 53 | 227 | 0.9 | 2.6 | 0.00 | 0.00 | 0.00 | 64 | 1018.0 |